Tracking 19847 objects as of 18-Sep-2019
HD Live streaming from Space Station
objects crossing your sky now

COSMOS 1361

Track COSMOS 1361 now!
10-day predictions
COSMOS 1361 is classified as:


NORAD ID: 13164
Int'l Code: 1982-040E
Perigee: 1,467.8 km
Apogee: 1,490.8 km
Inclination: 74.0 °
Period: 115.4 minutes
Semi major axis: 7850 km
RCS: 0.6957 m2 (medium)
Launch date: May 6, 1982
Source: Commonwealth of Independent States (former USSR) (CIS)
Launch site: PLESETSK MISSILE AND SPACE COMPLEX (PKMTR)
aabbcc
Your satellite tracking list
Your tracking list is empty




NASA's NSSDC Master Catalog

Two Line Element Set (TLE):
1 13164U 82040E   19259.91474157 -.00000032 +00000-0 -10620-3 0  9992
2 13164 074.0118 054.0058 0014643 262.3897 211.8136 12.48169102702505
Source of the keplerian elements: AFSPC